Weather in Cwmbran

United Kingdom     51°39′27″N   3°01′32″W
temp.,
°C
wind,
m/s
gust,
m/s
humid.,
%
clouds,
%
prec.,
mm/h
press.,
hPa
HPBL,
m
1 march, mon
mon100:00+3ne34950 0.0 103495
03:00+1nne34961 0.0 103281
06:00+1nne34962 0.0 103279
09:00+3ne469330 0.0 1031316
12:00+7ene477957 0.0 1031579
15:00+9e57743 0.0 1030798
18:00+6ne35912 0.0 102987
21:00+4ne23940 0.0 103045
2 march, tue
tue200:00+2nne22940 0.0 103024
03:00+1nne23940 0.0 102929
06:000nne23950 0.0 102941
09:00+3nne34890 0.0 1029184
12:00+8ene24730 0.0 1029412
15:00+10ene34730 0.0 1028625
18:00+6ne238914 0.0 102829
21:00+5nne229123 0.0 102822
3 march, wed
wed300:00+4ne119239 0.0 102822
03:00+4nne119262 0.0 102722
06:00+4nne129276 0.0 102622
09:00+6ne1287100 0.3 1026108
12:00+7nne2291100 6.6 1026229
15:00+10nne228595 0.1 1024352
18:00+7nne229393 0.1 102424
21:00+7n249499 0.0 1024106
4 march, thu
thu400:00+6n249497 0.0 1023111
03:00+4nnw239529 0.0 102347
06:00+4nne239630 0.0 102347
09:00+5ne259298 0.0 1023365
12:00+6ne358598 0.0 1024523
15:00+6ne567994 0.1 1024781
18:00+4ne587797 0.1 1024705
21:00+4ne387699 0.0 1026506
5 march, fri
fri500:00+1ne5108498 0.1 1028584
03:00−1n398939 0.0 1028258
06:00−1nne4128938 0.0 1029368
09:00+2ne710750 0.0 1030762
12:00+5ne686424 0.0 10311232
15:00+5ne676193 0.0 10321255
18:00+3ne486892 0.0 1032328
21:000nne377764 0.0 1035128